Airfield :
LOGIN :

Register | Disclaimer

   EN    FR    IT 

 










Legend :    VFR   Marginal VFR   IFR   Intensive IFR   Very Intensive IFR
Visi :
Ceiling :
>= 8 km
>= 3000ft
5 to 8 km
1000 to 3000 ft
1500m to 5 km
500 to 1000 ft
800 to 1500m
200 to 500 ft
< 800m
< 200 ft
Symbols :   Thunderstorms  Fog  Heavy snow  Heavy precipitations  Wind > 20 kt
SIGMETs :     Misc.  Thunderstorms  Icing  Turbulence  Mountain Waves  Volcanic Ashes






- Airport Elevation : 26 ft


ETNT - Wittmundhaven AB

CURRENT METAR :
  • 291120Z 19009KT 9999 FEW008 BKN014 07/05 Q1009 BLACKGRN

EXPIRED METARs :
  • 291020Z 20010G20KT 9999 -RADZ BKN015 07/05 Q1009 BLACKWHT
  • 290920Z 19012KT 9999 -RA BKN012 07/04 Q1009 BLACKGRN
  • 290820Z 19010KT 9999 BKN014 BKN022 07/04 Q1010 BLACKGRN
  • 290720Z 19011KT 9999 BKN013 06/03 Q1010 BLACKGRN

Expired Forecast.



MET'MAP, your aeronautical weather chart ! - Copyright ORBIFLY December 2007 - Disclaimer

ORBIFLY MET'MAP TEAM :

Programming & Development : Alexandra Zaïnal
Original concept : Baudouin d'Aumeries
Technical & hardware support : Manuel Goepfert
Assistance : Marc-Olivier Méhu




SOURCES & CREDITS :

   NOAA